Location: Jackson Park
(37.2862°N, 79.9123°W)
Time: 22:03:21
(UTC+00:00)

Transit 4A - Pass Details

Date: 18 May 2026
Orbit: 861 x 980 km, 66.8° (Epoch: 5 June)

Event Time Altitude Azimuth Distance (km) Brightness Sun altitude
Rises 21:34:00 0° 332° (NNW) 3,688 11.4 31.8°
Reaches altitude 10° 21:36:35 10° 334° (NNW) 2,737 10.8 31.3°
Maximum altitude 21:43:02 84° 62° (ENE) 983 8.5 30.0°
Drops below altitude 10° 21:49:21 10° 152° (SSE) 2,684 10.1 28.8°
Sets 21:51:51 0° 152° (SSE) 3,613 10.7 28.3°
